Date String (YYYY-MM-DD hh:mm:ss) UTC,Instrument flags,Ambient pressure (hPa),Sample flow (lpm),Bypass flow (lpm),Sample temperature (°C),Ambient temperature (°C),ASC tube jacket temperature (°C),LED temperature (°C),Box temperature (°C),Sample RH (%),Span deviation,Mass concentration (μg/m³),Mass concentration (μg/m³),Mass concentration (μg/m³)
DateTimeUTC,F1_M11,P_M11,Q1_M11,Q2_M11,T1_M11,T2_M11,T3_M11,T4_M11,T5_M11,U1_M11,ZSPAN_M11,X0_M11,X2_M11,X1_M11
2022-07-11 04:00:00,,0829.9,4.99,0.00,28.6,25.2,00.0,37.7,30.3,23.3,0000.0,0008.46,0004.59,0003.96
2022-07-11 04:01:00,,0829.9,5.01,0.00,28.6,25.4,00.0,37.7,30.2,23.0,0000.0,0008.42,0004.59,0003.97
2022-07-11 04:02:00,,0829.8,5.01,0.00,28.6,25.8,00.0,37.6,30.3,23.1,0000.0,0008.71,0004.61,0003.98
2022-07-11 04:03:00,,0829.9,5.00,0.00,28.6,25.8,00.0,37.6,30.4,24.3,0000.0,0008.63,0004.61,0003.99
2022-07-11 04:04:00,,0829.9,4.99,0.00,28.5,25.3,00.0,37.5,30.3,25.0,0000.0,0009.03,0004.62,0004.00
2022-07-11 04:05:00,,0829.9,5.00,0.00,28.5,25.1,00.0,37.4,30.2,24.8,0000.0,0009.81,0004.61,0003.98
2022-07-11 04:06:00,,0829.9,5.00,0.00,28.4,25.2,00.0,37.4,30.2,24.5,0000.0,0010.02,0004.59,0003.97
2022-07-11 04:07:00,,0829.9,5.00,0.00,28.4,25.5,00.0,37.4,30.1,24.3,0000.0,0009.93,0004.58,0003.96
2022-07-11 04:08:00,,0829.8,5.01,0.00,28.4,25.8,00.0,37.4,30.2,23.6,0000.0,0009.91,0004.57,0003.97
2022-07-11 04:09:00,,0829.9,5.00,0.00,28.4,26.0,00.0,37.3,30.3,23.5,0000.0,0009.87,0004.56,0003.97
2022-07-11 04:10:00,,0829.9,5.00,0.00,28.4,25.5,00.0,37.3,30.2,23.7,0000.0,0009.86,0004.55,0003.97
2022-07-11 04:11:00,,0829.9,5.00,0.00,28.3,25.3,00.0,37.2,30.2,23.8,0000.0,0009.88,0004.55,0003.97
2022-07-11 04:12:00,,0829.9,5.01,0.00,28.3,25.5,00.0,37.2,30.1,24.6,0000.0,0009.79,0004.54,0003.96
2022-07-11 04:13:00,,0829.9,5.00,0.00,28.3,25.7,00.0,37.2,30.1,24.7,0000.0,0009.51,0004.52,0003.95
2022-07-11 04:14:00,,0829.9,5.01,0.00,28.3,26.1,00.0,37.2,30.2,24.4,0000.0,0009.50,0004.52,0003.94
2022-07-11 04:15:00,,0829.9,4.98,0.00,28.4,26.3,00.0,37.2,30.3,24.3,0000.0,0009.16,0004.47,0003.94
2022-07-11 04:16:00,,0829.9,5.00,0.00,28.4,26.1,00.0,37.1,30.3,23.8,0000.0,0008.57,0004.48,0003.95
2022-07-11 04:17:00,,0829.9,5.00,0.00,28.3,25.6,00.0,37.1,30.2,23.6,0000.0,0008.09,0004.46,0003.95
2022-07-11 04:18:00,,0829.9,4.99,0.00,28.3,25.7,00.0,37.1,30.2,23.6,0000.0,0008.01,0004.44,0003.95
2022-07-11 04:19:00,,0829.9,5.00,0.00,28.3,25.8,00.0,37.1,30.1,23.4,0000.0,0008.28,0004.46,0003.94
2022-07-11 04:20:00,,0829.9,5.01,0.00,28.3,26.1,00.0,37.1,30.1,23.3,0000.0,0008.38,0004.48,0003.95
2022-07-11 04:21:00,,0829.8,5.01,0.00,28.3,26.4,00.0,37.1,30.3,23.4,0000.0,0008.24,0004.44,0003.94
2022-07-11 04:22:00,,0829.8,4.98,0.00,28.3,26.3,00.0,37.1,30.3,23.5,0000.0,0008.08,0004.43,0003.94
2022-07-11 04:23:00,,0829.8,5.00,0.00,28.3,25.8,00.0,37.0,30.2,23.6,0000.0,0008.07,0004.42,0003.94
2022-07-11 04:24:00,,0829.8,5.00,0.00,28.3,25.6,00.0,37.0,30.2,23.8,0000.0,0008.01,0004.36,0003.92
2022-07-11 04:25:00,,0829.8,5.00,0.00,28.2,25.8,00.0,37.0,30.1,23.8,0000.0,0007.94,0004.30,0003.91
2022-07-11 04:26:00,,0829.8,5.03,0.00,28.2,26.0,00.0,37.0,30.1,24.2,0000.0,0007.95,0004.30,0003.90
2022-07-11 04:27:00,,0829.8,4.98,0.00,28.3,26.3,00.0,37.0,30.2,24.1,0000.0,0007.67,0004.29,0003.89
2022-07-11 04:28:00,,0829.8,5.01,0.00,28.3,26.6,00.0,37.1,30.3,24.0,0000.0,0007.41,0004.28,0003.89
2022-07-11 04:29:00,,0829.8,5.01,0.00,28.3,26.4,00.0,37.0,30.3,24.0,0000.0,0007.32,0004.27,0003.88
2022-07-11 04:30:00,,0829.8,4.98,0.00,28.3,25.9,00.0,37.0,30.2,24.0,0000.0,0006.75,0004.21,0003.87
2022-07-11 04:31:00,,0829.8,5.01,0.00,28.3,25.7,00.0,37.0,30.2,24.0,0000.0,0006.79,0004.18,0003.85
2022-07-11 04:32:00,,0829.8,5.00,0.00,28.2,25.8,00.0,37.0,30.1,24.2,0000.0,0007.45,0004.17,0003.83
2022-07-11 04:33:00,,0829.8,5.01,0.00,28.2,26.1,00.0,37.0,30.1,24.1,0000.0,0007.36,0004.13,0003.80
2022-07-11 04:34:00,,0829.8,4.99,0.00,28.3,26.4,00.0,37.0,30.2,24.0,0000.0,0007.37,0004.12,0003.80
2022-07-11 04:35:00,,0829.8,5.00,0.00,28.3,26.6,00.0,37.0,30.3,23.8,0000.0,0007.51,0004.16,0003.80
2022-07-11 04:36:00,,0829.8,5.00,0.00,28.4,26.8,00.0,37.0,30.4,24.0,0000.0,0007.45,0004.16,0003.80
2022-07-11 04:37:00,,0829.7,5.00,0.00,28.4,26.3,00.0,37.0,30.3,24.8,0000.0,0007.45,0004.17,0003.81
2022-07-11 04:38:00,,0829.7,5.01,0.00,28.3,25.8,00.0,37.0,30.2,25.2,0000.0,0007.99,0004.20,0003.82
2022-07-11 04:39:00,,0829.7,5.00,0.00,28.3,25.8,00.0,37.0,30.2,25.2,0000.0,0008.48,0004.24,0003.83
2022-07-11 04:40:00,,0829.6,5.00,0.00,28.2,26.0,00.0,37.0,30.1,25.1,0000.0,0008.57,0004.30,0003.87
2022-07-11 04:41:00,,0829.6,5.01,0.00,28.3,26.2,00.0,37.0,30.1,25.5,0000.0,0009.30,0004.36,0003.88
2022-07-11 04:42:00,,0829.6,5.01,0.00,28.3,26.5,00.0,37.0,30.2,25.6,0000.0,0009.92,0004.39,0003.90
2022-07-11 04:43:00,,0829.6,4.98,0.00,28.3,26.8,00.0,37.1,30.3,25.4,0000.0,0010.01,0004.43,0003.92
2022-07-11 04:44:00,,0829.6,5.01,0.00,28.4,26.9,00.0,37.1,30.4,25.2,0000.0,0010.17,0004.49,0003.96
2022-07-11 04:45:00,,0829.6,5.00,0.00,28.4,26.4,00.0,37.0,30.3,25.2,0000.0,0010.81,0004.54,0003.98
2022-07-11 04:46:00,,0829.6,4.99,0.00,28.3,25.9,00.0,37.0,30.3,25.2,0000.0,0010.91,0004.61,0004.01
2022-07-11 04:47:00,,0829.6,5.01,0.00,28.3,26.0,00.0,37.0,30.2,25.4,0000.0,0011.06,0004.68,0004.03
2022-07-11 04:48:00,,0829.6,5.00,0.00,28.3,26.1,00.0,37.0,30.1,25.3,0000.0,0011.18,0004.73,0004.07
2022-07-11 04:49:00,,0829.6,5.00,0.00,28.3,26.3,00.0,37.0,30.2,25.4,0000.0,0010.76,0004.76,0004.10
2022-07-11 04:50:00,,0829.6,5.01,0.00,28.3,26.6,00.0,37.1,30.2,25.3,0000.0,0011.19,0004.79,0004.12
2022-07-11 04:51:00,,0829.6,4.99,0.00,28.4,26.8,00.0,37.1,30.3,25.3,0000.0,0011.31,0004.76,0004.13
2022-07-11 04:52:00,,0829.6,5.00,0.00,28.4,27.1,00.0,37.1,30.4,25.4,0000.0,0010.77,0004.79,0004.15
2022-07-11 04:53:00,,0829.9,5.01,0.00,28.4,26.9,00.0,37.1,30.5,25.5,0000.0,0010.30,0004.91,0004.21
2022-07-11 04:54:00,,0829.9,4.99,0.00,28.4,26.2,00.0,37.0,30.4,25.6,0000.0,0009.95,0004.97,0004.27
2022-07-11 04:55:00,,0829.8,4.99,0.00,28.4,26.0,00.0,37.0,30.3,25.6,0000.0,0010.17,0005.05,0004.31
2022-07-11 04:56:00,,0829.6,5.01,0.00,28.3,26.1,00.0,37.0,30.2,25.6,0000.0,0009.88,0005.09,0004.36
2022-07-11 04:57:00,,0829.6,5.00,0.00,28.3,26.3,00.0,37.0,30.2,25.5,0000.0,0010.26,0005.13,0004.40
2022-07-11 04:58:00,,0829.6,5.01,0.00,28.3,26.5,00.0,37.1,30.2,25.4,0000.0,0011.28,0005.17,0004.45
2022-07-11 04:59:00,,0829.7,5.01,0.00,28.4,26.7,00.0,37.1,30.3,25.0,0000.0,0011.34,0005.20,0004.49
